Time,TemperatureF,DewpointF,PressureIn,WindDirection,WindDirectionDegrees,WindSpeedMPH,WindSpeedGustMPH,Humidity,HourlyPrecipIn,Conditions,Clouds,dailyrainin,SolarRadiationWatts/m^2,SoftwareType,DateUTC
2013-07-02 00:01:00,43.0,42.0,-100.00,WSW,252,0.0,3.0,98,0.00,,,0.00,0.000000,,2013-07-02 05:01:00,
2013-07-02 00:22:00,43.0,42.0,-100.00,WSW,252,0.0,3.0,98,0.00,,,0.00,0.000000,,2013-07-02 05:22:00,
2013-07-02 00:32:00,43.0,42.0,-100.00,WSW,252,0.0,3.0,98,0.00,,,0.00,0.000000,,2013-07-02 05:32:00,
2013-07-02 00:43:00,43.0,42.0,-100.00,WSW,252,0.0,3.0,98,0.00,,,0.00,0.000000,,2013-07-02 05:43:00,
2013-07-02 00:53:00,43.0,42.0,-100.00,WSW,252,0.0,3.0,98,0.00,,,0.00,0.000000,,2013-07-02 05:53:00,
2013-07-02 01:01:00,41.0,40.0,-100.00,West,268,0.0,0.0,98,0.00,,,0.00,0.000000,,2013-07-02 06:01:00,
2013-07-02 01:23:00,41.0,40.0,-100.00,West,268,0.0,0.0,98,0.00,,,0.00,0.000000,,2013-07-02 06:23:00,
2013-07-02 01:34:00,41.0,40.0,-100.00,West,268,0.0,0.0,98,0.00,,,0.00,0.000000,,2013-07-02 06:34:00,
2013-07-02 01:43:00,41.0,40.0,-100.00,West,268,0.0,0.0,98,0.00,,,0.00,0.000000,,2013-07-02 06:43:00,
2013-07-02 01:53:00,41.0,40.0,-100.00,West,268,0.0,0.0,98,0.00,,,0.00,0.000000,,2013-07-02 06:53:00,
2013-07-02 02:01:00,39.0,38.0,-100.00,WSW,252,0.0,0.0,98,0.00,,,0.00,0.000000,,2013-07-02 07:01:00,
2013-07-02 02:22:00,39.0,38.0,-100.00,WSW,252,0.0,0.0,98,0.00,,,0.00,0.000000,,2013-07-02 07:22:00,
2013-07-02 02:34:00,39.0,38.0,-100.00,WSW,252,0.0,0.0,98,0.00,,,0.00,0.000000,,2013-07-02 07:34:00,
2013-07-02 02:44:00,39.0,38.0,-100.00,WSW,252,0.0,0.0,98,0.00,,,0.00,0.000000,,2013-07-02 07:44:00,
2013-07-02 02:53:00,39.0,38.0,-100.00,WSW,252,0.0,0.0,98,0.00,,,0.00,0.000000,,2013-07-02 07:53:00,
2013-07-02 03:01:00,38.0,37.0,-100.00,WNW,295,0.0,0.0,98,0.00,,,0.00,0.000000,,2013-07-02 08:01:00,
2013-07-02 03:22:00,38.0,37.0,-100.00,WNW,295,0.0,0.0,98,0.00,,,0.00,0.000000,,2013-07-02 08:22:00,
2013-07-02 03:33:00,38.0,37.0,-100.00,WNW,295,0.0,0.0,98,0.00,,,0.00,0.000000,,2013-07-02 08:33:00,
2013-07-02 03:44:00,38.0,37.0,-100.00,WNW,295,0.0,0.0,98,0.00,,,0.00,0.000000,,2013-07-02 08:44:00,
2013-07-02 03:53:00,38.0,37.0,-100.00,WNW,295,0.0,0.0,98,0.00,,,0.00,0.000000,,2013-07-02 08:53:00,
2013-07-02 04:01:00,37.0,37.0,-100.00,WNW,298,0.0,2.0,99,0.00,,,0.00,0.000000,,2013-07-02 09:01:00,
2013-07-02 04:23:00,37.0,37.0,-100.00,WNW,298,0.0,2.0,99,0.00,,,0.00,0.000000,,2013-07-02 09:23:00,
2013-07-02 04:33:00,37.0,37.0,-100.00,WNW,298,0.0,2.0,99,0.00,,,0.00,0.000000,,2013-07-02 09:33:00,
2013-07-02 04:43:00,37.0,37.0,-100.00,WNW,298,0.0,2.0,99,0.00,,,0.00,0.000000,,2013-07-02 09:43:00,
2013-07-02 04:52:00,37.0,37.0,-100.00,WNW,298,0.0,2.0,99,0.00,,,0.00,0.000000,,2013-07-02 09:52:00,
2013-07-02 05:01:00,36.0,36.0,-100.00,West,263,0.0,0.0,99,0.00,,,0.00,0.000000,,2013-07-02 10:01:00,
2013-07-02 05:22:00,36.0,36.0,-100.00,West,263,0.0,0.0,99,0.00,,,0.00,0.000000,,2013-07-02 10:22:00,
2013-07-02 05:33:00,36.0,36.0,-100.00,West,263,0.0,0.0,99,0.00,,,0.00,0.000000,,2013-07-02 10:33:00,
2013-07-02 05:44:00,36.0,36.0,-100.00,West,263,0.0,0.0,99,0.00,,,0.00,0.000000,,2013-07-02 10:44:00,
2013-07-02 05:52:00,36.0,36.0,-100.00,West,263,0.0,0.0,99,0.00,,,0.00,0.000000,,2013-07-02 10:52:00,
2013-07-02 06:01:00,38.0,37.0,-100.00,WNW,299,1.0,2.0,98,0.00,,,0.00,25.000000,,2013-07-02 11:01:00,
2013-07-02 06:22:00,38.0,37.0,-100.00,WNW,299,1.0,2.0,98,0.00,,,0.00,25.000000,,2013-07-02 11:22:00,
2013-07-02 06:33:00,38.0,37.0,-100.00,WNW,299,1.0,2.0,98,0.00,,,0.00,25.000000,,2013-07-02 11:33:00,
2013-07-02 06:42:00,38.0,37.0,-100.00,WNW,299,1.0,2.0,98,0.00,,,0.00,25.000000,,2013-07-02 11:42:00,
2013-07-02 06:52:00,38.0,37.0,-100.00,WNW,299,1.0,2.0,98,0.00,,,0.00,25.000000,,2013-07-02 11:52:00,
2013-07-02 07:01:00,49.0,46.0,-100.00,North,356,0.0,1.0,91,0.00,,,0.00,185.000000,,2013-07-02 12:01:00,
2013-07-02 07:23:00,49.0,46.0,-100.00,North,356,0.0,1.0,91,0.00,,,0.00,185.000000,,2013-07-02 12:23:00,
2013-07-02 07:33:00,49.0,46.0,-100.00,North,356,0.0,1.0,91,0.00,,,0.00,185.000000,,2013-07-02 12:33:00,
2013-07-02 07:43:00,49.0,46.0,-100.00,North,356,0.0,1.0,91,0.00,,,0.00,185.000000,,2013-07-02 12:43:00,
2013-07-02 07:52:00,49.0,46.0,-100.00,North,356,0.0,1.0,91,0.00,,,0.00,185.000000,,2013-07-02 12:52:00,
2013-07-02 08:01:00,59.0,51.0,-100.00,North,357,1.0,2.0,76,0.00,,,0.00,359.000000,,2013-07-02 13:01:00,
2013-07-02 08:34:00,59.0,51.0,-100.00,North,357,1.0,2.0,76,0.00,,,0.00,359.000000,,2013-07-02 13:34:00,
2013-07-02 08:43:00,59.0,51.0,-100.00,North,357,1.0,2.0,76,0.00,,,0.00,359.000000,,2013-07-02 13:43:00,
2013-07-02 08:52:00,59.0,51.0,-100.00,North,357,1.0,2.0,76,0.00,,,0.00,359.000000,,2013-07-02 13:52:00,
2013-07-02 09:01:00,64.0,50.0,-100.00,NNE,13,2.0,4.0,61,0.00,,,0.00,549.000000,,2013-07-02 14:01:00,
2013-07-02 09:33:00,64.0,50.0,-100.00,NNE,13,2.0,4.0,61,0.00,,,0.00,549.000000,,2013-07-02 14:33:00,
2013-07-02 09:43:00,64.0,50.0,-100.00,NNE,13,2.0,4.0,61,0.00,,,0.00,549.000000,,2013-07-02 14:43:00,
2013-07-02 09:53:00,64.0,50.0,-100.00,NNE,13,2.0,4.0,61,0.00,,,0.00,549.000000,,2013-07-02 14:53:00,
2013-07-02 10:01:00,69.0,47.0,-100.00,North,357,3.0,5.0,46,0.00,,,0.00,715.000000,,2013-07-02 15:01:00,
2013-07-02 10:22:00,69.0,47.0,-100.00,North,357,3.0,5.0,46,0.00,,,0.00,715.000000,,2013-07-02 15:22:00,
2013-07-02 10:33:00,69.0,47.0,-100.00,North,357,3.0,5.0,46,0.00,,,0.00,715.000000,,2013-07-02 15:33:00,
2013-07-02 10:44:00,69.0,47.0,-100.00,North,357,3.0,5.0,46,0.00,,,0.00,715.000000,,2013-07-02 15:44:00,
2013-07-02 10:53:00,69.0,47.0,-100.00,North,357,3.0,5.0,46,0.00,,,0.00,715.000000,,2013-07-02 15:53:00,
2013-07-02 11:01:00,71.0,49.0,-100.00,SSE,151,2.0,6.0,45,0.00,,,0.00,876.000000,,2013-07-02 16:01:00,
2013-07-02 11:33:00,71.0,49.0,-100.00,SSE,151,2.0,6.0,45,0.00,,,0.00,876.000000,,2013-07-02 16:33:00,
2013-07-02 11:43:00,71.0,49.0,-100.00,SSE,151,2.0,6.0,45,0.00,,,0.00,876.000000,,2013-07-02 16:43:00,
2013-07-02 11:52:00,71.0,49.0,-100.00,SSE,151,2.0,6.0,45,0.00,,,0.00,876.000000,,2013-07-02 16:52:00,
2013-07-02 12:01:00,73.0,47.0,-100.00,West,263,3.0,7.0,39,0.00,,,0.00,988.000000,,2013-07-02 17:01:00,
2013-07-02 12:33:00,73.0,47.0,-100.00,West,263,3.0,7.0,39,0.00,,,0.00,988.000000,,2013-07-02 17:33:00,
2013-07-02 12:43:00,73.0,47.0,-100.00,West,263,3.0,7.0,39,0.00,,,0.00,988.000000,,2013-07-02 17:43:00,
2013-07-02 12:53:00,73.0,47.0,-100.00,West,263,3.0,7.0,39,0.00,,,0.00,988.000000,,2013-07-02 17:53:00,
2013-07-02 13:01:00,74.0,41.0,-100.00,South,186,4.0,8.0,31,0.00,,,0.00,1052.000000,,2013-07-02 18:01:00,
2013-07-02 13:23:00,74.0,41.0,-100.00,South,186,4.0,8.0,31,0.00,,,0.00,1052.000000,,2013-07-02 18:23:00,
2013-07-02 13:34:00,74.0,41.0,-100.00,South,186,4.0,8.0,31,0.00,,,0.00,1052.000000,,2013-07-02 18:34:00,
2013-07-02 13:43:00,74.0,41.0,-100.00,South,186,4.0,8.0,31,0.00,,,0.00,1052.000000,,2013-07-02 18:43:00,
2013-07-02 13:53:00,74.0,41.0,-100.00,South,186,4.0,8.0,31,0.00,,,0.00,1052.000000,,2013-07-02 18:53:00,
2013-07-02 14:01:00,76.0,43.0,-100.00,North,1,5.0,10.0,31,0.00,,,0.00,1035.000000,,2013-07-02 19:01:00,
2013-07-02 14:22:00,76.0,43.0,-100.00,North,1,5.0,10.0,31,0.00,,,0.00,1035.000000,,2013-07-02 19:22:00,
2013-07-02 14:34:00,76.0,43.0,-100.00,North,1,5.0,10.0,31,0.00,,,0.00,1035.000000,,2013-07-02 19:34:00,
2013-07-02 14:43:00,76.0,43.0,-100.00,North,1,5.0,10.0,31,0.00,,,0.00,1035.000000,,2013-07-02 19:43:00,
2013-07-02 14:53:00,76.0,43.0,-100.00,North,1,5.0,10.0,31,0.00,,,0.00,1035.000000,,2013-07-02 19:53:00,
2013-07-02 15:01:00,77.0,41.0,-100.00,East,82,4.0,9.0,28,0.00,,,0.00,1006.000000,,2013-07-02 20:01:00,
2013-07-02 15:22:00,77.0,41.0,-100.00,East,82,4.0,9.0,28,0.00,,,0.00,1006.000000,,2013-07-02 20:22:00,
2013-07-02 15:33:00,77.0,41.0,-100.00,East,82,4.0,9.0,28,0.00,,,0.00,1006.000000,,2013-07-02 20:33:00,
2013-07-02 15:43:00,77.0,41.0,-100.00,East,82,4.0,9.0,28,0.00,,,0.00,1006.000000,,2013-07-02 20:43:00,
2013-07-02 15:52:00,77.0,41.0,-100.00,East,82,4.0,9.0,28,0.00,,,0.00,1006.000000,,2013-07-02 20:52:00,
2013-07-02 17:01:00,75.0,49.0,-100.00,North,2,6.0,12.0,40,0.00,,,0.00,762.000000,,2013-07-02 22:01:00,
2013-07-02 17:22:00,75.0,49.0,-100.00,North,2,6.0,12.0,40,0.00,,,0.00,762.000000,,2013-07-02 22:22:00,
2013-07-02 17:34:00,75.0,49.0,-100.00,North,2,6.0,12.0,40,0.00,,,0.00,762.000000,,2013-07-02 22:34:00,
2013-07-02 17:43:00,75.0,49.0,-100.00,North,2,6.0,12.0,40,0.00,,,0.00,762.000000,,2013-07-02 22:43:00,
2013-07-02 17:53:00,75.0,49.0,-100.00,North,2,6.0,12.0,40,0.00,,,0.00,762.000000,,2013-07-02 22:53:00,
2013-07-02 18:01:00,74.0,47.0,-100.00,NE,49,5.0,11.0,39,0.00,,,0.00,582.000000,,2013-07-02 23:01:00,
2013-07-02 18:22:00,74.0,47.0,-100.00,NE,49,5.0,11.0,39,0.00,,,0.00,582.000000,,2013-07-02 23:22:00,
2013-07-02 18:33:00,74.0,47.0,-100.00,NE,49,5.0,11.0,39,0.00,,,0.00,582.000000,,2013-07-02 23:33:00,
2013-07-02 18:44:00,74.0,47.0,-100.00,NE,49,5.0,11.0,39,0.00,,,0.00,582.000000,,2013-07-02 23:44:00,
2013-07-02 18:52:00,74.0,47.0,-100.00,NE,49,5.0,11.0,39,0.00,,,0.00,582.000000,,2013-07-02 23:52:00,
2013-07-02 19:01:00,72.0,46.0,-100.00,ENE,57,5.0,10.0,40,0.00,,,0.00,399.000000,,2013-07-03 00:01:00,
2013-07-02 19:22:00,72.0,46.0,-100.00,ENE,57,5.0,10.0,40,0.00,,,0.00,399.000000,,2013-07-03 00:22:00,
2013-07-02 19:33:00,72.0,46.0,-100.00,ENE,57,5.0,10.0,40,0.00,,,0.00,399.000000,,2013-07-03 00:33:00,
2013-07-02 19:44:00,72.0,46.0,-100.00,ENE,57,5.0,10.0,40,0.00,,,0.00,399.000000,,2013-07-03 00:44:00,
2013-07-02 19:52:00,72.0,46.0,-100.00,ENE,57,5.0,10.0,40,0.00,,,0.00,399.000000,,2013-07-03 00:52:00,
2013-07-02 20:01:00,68.0,46.0,-100.00,ENE,78,4.0,7.0,45,0.00,,,0.00,209.000000,,2013-07-03 01:01:00,
2013-07-02 20:22:00,68.0,46.0,-100.00,ENE,78,4.0,7.0,45,0.00,,,0.00,209.000000,,2013-07-03 01:22:00,
2013-07-02 20:33:00,68.0,46.0,-100.00,ENE,78,4.0,7.0,45,0.00,,,0.00,209.000000,,2013-07-03 01:33:00,
2013-07-02 20:43:00,68.0,46.0,-100.00,ENE,78,4.0,7.0,45,0.00,,,0.00,209.000000,,2013-07-03 01:43:00,
2013-07-02 20:59:00,68.0,46.0,-100.00,ENE,78,4.0,7.0,45,0.00,,,0.00,209.000000,,2013-07-03 01:59:00,
2013-07-02 21:01:00,56.0,48.0,-100.00,NNE,14,1.0,6.0,75,0.00,,,0.00,38.000000,,2013-07-03 02:01:00,
2013-07-02 21:40:00,56.0,48.0,-100.00,NNE,14,1.0,6.0,75,0.00,,,0.00,38.000000,,2013-07-03 02:40:00,
2013-07-02 21:46:00,56.0,48.0,-100.00,NNE,14,1.0,6.0,75,0.00,,,0.00,38.000000,,2013-07-03 02:46:00,
2013-07-02 21:59:00,56.0,48.0,-100.00,NNE,14,1.0,6.0,75,0.00,,,0.00,38.000000,,2013-07-03 02:59:00,
2013-07-02 22:01:00,49.0,47.0,-100.00,NW,310,0.0,2.0,93,0.00,,,0.00,1.000000,,2013-07-03 03:01:00,
2013-07-02 22:36:00,49.0,47.0,-100.00,NW,310,0.0,2.0,93,0.00,,,0.00,1.000000,,2013-07-03 03:36:00,
2013-07-02 22:49:00,49.0,47.0,-100.00,NW,310,0.0,2.0,93,0.00,,,0.00,1.000000,,2013-07-03 03:49:00,
2013-07-02 22:58:00,49.0,47.0,-100.00,NW,310,0.0,2.0,93,0.00,,,0.00,1.000000,,2013-07-03 03:58:00,
2013-07-02 23:01:00,46.0,45.0,-100.00,WSW,240,0.0,0.0,96,0.00,,,0.00,0.000000,,2013-07-03 04:01:00,
2013-07-02 23:34:00,46.0,45.0,-100.00,WSW,240,0.0,0.0,96,0.00,,,0.00,0.000000,,2013-07-03 04:34:00,
2013-07-02 23:43:00,46.0,45.0,-100.00,WSW,240,0.0,0.0,96,0.00,,,0.00,0.000000,,2013-07-03 04:43:00,
2013-07-02 23:52:00,46.0,45.0,-100.00,WSW,240,0.0,0.0,96,0.00,,,0.00,0.000000,,2013-07-03 04:52:00,